www.pogodaiklimat.ru

Погода и климат >> Архив погоды >> Россия >> Архангельская область >> Зимнегорский Маяк


ПОГОДА в Зимнегорском Маяке

  • Прогноз погоды в Зимнегорском Маяке
  • Монитор погоды в Зимнегорском Маяке

АРХИВ ПОГОДЫ в Зимнегорском Маяке

Время (UTC), дата Ветер
(напр.,м/с)
 
Видим.   Явления Облачность Т
(С)
Тd
(С)
f
(%)
Тe
(С)
Тes
(С)
Комфортность P
(гПа)
Po
(гПа)
Тmin
(С)
Tmax
(С)
R
(мм)
R24
(мм)
S
(см)
03 19.04 Ю 6 н/о н/о +1.3 -2.1 78 -5 -5 1027.2 1017.4 -0.9
06 19.04 Ю 5
{11}
20 км 4/0
[Ac trans Ci fib]
+3.4 -1.9 68 -1 +1 1025.5 1015.8
09 19.04 Ю 4 н/о н/о +5.4 -3.0 55 +2 +2 1023.8 1014.2
12 19.04 СЗ 1 20 км 9/8 300 м
[Cu Sc Ac trans]
+3.2 -2.5 66 +2 +3 1023.6 1013.9
15 19.04 С 2 20 км 9/8 300 м
[Sc Ac cuf Ci fib]
+2.3 -2.3 72 -1 -0 1024.3 1014.6 +5.8
18 19.04 В 5 20 км 3/3 300 м
[Sc diur, vesp Ac cast]
+0.8 -2.1 81 -5 -5 1025.0 1015.2
21 19.04 В 5
{11}
н/о н/о +1.1 -2.4 77 -5 -5 1026.4 1016.6
00 20.04 СВ 3 20 км 3/0
[Ac trans]
-0.4 -2.5 86 -5 -5 1027.2 1017.4
03 20.04 В 2 н/о н/о -0.4 -2.2 88 -4 -4 1028.1 1018.3 -1.9
06 20.04 С 2 20 км 9/9 600 м
[Sc]
+0.4 -1.0 90 -3 -3 1028.7 1018.9
09 20.04 ЮЗ 2 н/о н/о +1.5 -0.1 89 -2 -2 1028.5 1018.7
12 20.04 ЮЗ 3 20 км 4/0
[Ci fib]
+2.0 +0.4 89 -2 +2 1028.4 1018.7
15 20.04 ЮЗ 4 20 км 10/0
[Cs]
+1.9 +0.3 89 -3 -2 1027.1 1017.4 +2.7
18 20.04 Ю 5 20 км 10/0
[Cs]
+2.3 -2.0 73 -3 -3 1026.1 1016.3
21 20.04 Ю 5 н/о н/о +2.8 -2.3 69 -2 -2 1024.8 1015.0
00 21.04 ЮЗ 7-10
{11}
20 км 9/0
[Ac trans]
+1.9 -1.8 76 -4 -4 1023.3 1013.5
03 21.04 ЮЗ 6-12
{14}
н/о н/о +1.9 -1.9 76 -4 -4 1022.4 1012.6 +1.5
06 21.04 ЮЗ 7-10
{12}
20 км 10/0
[Ac As]
+2.5 -1.7 74 -4 -3 1021.2 1011.5
09 21.04 ЮЗ 9-13
{16}
н/о н/о +4.1 -1.5 67 -2 -2 1020.4 1010.8
12 21.04 Ю 8-14
{16}
20 км 10/0
[Ac As]
+4.9 -2.3 60 -1 -0 1019.5 1009.8
15 21.04 Ю 8-13
{14}
20 км 10/0
[Ac As]
+5.1 -2.4 58 -0 -0 1018.2 1008.6 +5.3
18 21.04 Ю 7-10
{18}
20 км 10/0
[Ac As]
+3.2 -1.3 72 -3 -3 1017.3 1007.6
21 21.04 ЮЗ 10-12
{12}
н/о н/о +2.9 -1.3 74 -4 -4 1016.0 1006.4
00 22.04 ЮЗ 9-10
{13}
4000 м слаб. дождь 10/0
[As op]
+1.4 +0.6 94 -6 -6 1015.1 1005.4
03 22.04 З 9-12
{13}
н/о н/о +1.0 +1.0 100 -7 -7 1014.7 1005.0 +0.8
06 22.04 З 9-11
{12}
10 км {дождь} 10/0
[Ac As]
+1.1 +0.8 98 -7 -6 1014.9 1005.2
09 22.04 З 5
{12}
н/о н/о +1.0 +0.9 99 -5 -5 1016.4 1006.7
12 22.04 ЮЗ 2 10 км 8/8 300 м
[St]
+2.0 +0.7 91 -1 -0 1017.5 1007.8
15 22.04 З 4
{14}
20 км ясно +4.0 0.0 75 -0 +1 1018.8 1009.2 +4.0
18 22.04 В 1 20 км ясно +1.4 -0.8 85 -0 -0 1020.2 1010.5
21 22.04 Ю 3 н/о н/о +2.4 -0.4 82 -2 -2 1020.5 1010.9
00 23.04 Ю 3 20 км 8/0
[Cs]
+2.3 -0.4 82 -2 -2 1020.1 1010.4
03 23.04 Ю 5 н/о н/о +3.2 +0.5 82 -2 -2 1018.0 1008.3 +1.3
06 23.04 Ю 7-12
{14}
4000 м слаб. дождь 10/10 300 м
[Frnb Ns]
+2.3 +1.3 93 -4 -4 1015.1 1005.4
09 23.04 ЮЗ 7-12
{14}
н/о н/о +3.2 +1.3 87 -3 -3 1013.7 1004.1
12 23.04 З 6-12
{13}
20 км {дождь} 9/9 600 м
[Sc]
+4.7 +1.4 79 -0 -0 1014.2 1004.6
15 23.04 СЗ 2
{13}
20 км 9/0
[Ac trans Ci fib]
+5.8 +1.3 73 +4 +4 1014.5 1005.0 +5.8 0.7
18 23.04 ЮЗ 2 20 км 9/8 600 м
[Sc Ci fib]
+4.7 +0.8 76 +2 +2 1015.0 1005.4
21 23.04 В 2 н/о н/о +3.4 +0.7 82 +1 +1 1016.1 1006.4
00 24.04 В 2 20 км ясно +2.3 +0.4 87 -1 -1 1017.1 1007.4
03 24.04 ЮЗ 1 н/о н/о +2.6 +0.4 85 +1 +1 1017.9 1008.2 +1.2
06 24.04 С 3 20 км 9/0
[Ac trans]
+7.3 +2.5 72 +5 +7 1019.2 1009.7
09 24.04 СВ 2 н/о н/о +7.0 +2.1 71 +5 +5 1021.4 1011.9
12 24.04 СВ 4 20 км 9/8 600 м
[Sc Ac trans]
+7.2 +1.0 65 +4 +5 1023.1 1013.5
15 24.04 В 2 20 км 9/9 600 м
[Sc]
+5.6 +0.5 70 +3 +3 1024.1 1014.5 +7.4
18 24.04 СВ 2 20 км 10/10 600 м
[Sc]
+3.6 +0.7 81 +1 +1 1024.9 1015.2
21 24.04 С 3 н/о н/о +1.6 +0.6 93 -3 -3 1026.0 1016.2
00 25.04 СВ 3 20 км 9/9 600 м
[Sc]
+1.6 -0.3 87 -3 -3 1027.1 1017.3
03 25.04 СВ 3 н/о н/о 0.0 -1.2 92 -5 -5 1028.3 1018.4 0.0
06 25.04 СВ 3 20 км 9/9 600 м
[Sc]
+0.8 -2.8 77 -4 -3 1029.3 1019.4
09 25.04 СВ 2 н/о н/о +0.9 -3.3 73 -2 -2 1030.1 1020.3
12 25.04 СВ 2 20 км 8/8 300 м
[Cu Sc]
+1.2 -5.1 63 -2 -0 1030.0 1020.2
15 25.04 СВ 3 20 км 8/8 300 м
[Cu Sc]
+0.5 -5.3 65 -4 -3 1029.3 1019.5 +2.0
18 25.04 В 2 20 км 10/10 600 м
[Sc]
-0.5 -5.4 69 -4 -4 1028.4 1018.5
21 25.04 Ю 1 н/о н/о -1.6 -4.6 80 -4 -4 1027.8 1017.9
00 26.04 Ю 4 20 км 9/9 600 м
[Sc]
-1.2 -4.8 76 -7 -7 1026.4 1016.5

 

Местоположение метеостанции Зимнегорский Маяк (Архангельская область, Россия): широта 65.46 долгота 39.73 высота над уровнем моря 77 м.

В архиве по умолчанию представлена погода в Зимнегорском Маяке за последнюю неделю. Архивные данные за месяц целиком и за предыдущие месяцы, начиная с января 2011 года, Вы можете получить, выбрав интересующий диапазон дат из раскрывающегося списка и нажав кнопку "Ввод!".


*Определитесь, кто Вы:
робот инопланетянин человек

Внимание! Время в таблицах - всемирное. Для получения местного времени необходимо прибавить поправку, которая равна 3 ч.

Смотрите также архив погоды в соседних городах и на ближайших метеорологических станциях:

Погода на Мудьюг Острове (Архангельская область, Россия) (73 км)
Погода в Пялице (Мурманская область, Россия) (81 км)
Погода в Унском Маяке (Архангельская область, Россия) (94 км)
Погода в Кепино (Архангельская область, Россия) (98 км)
Погода в Северодвинске (Архангельская область, Россия) (98 км)
Погода на Чаваньга реке (Мурманская область, Россия) (115 км)
Погода в Архангельске (Архангельская область, Россия) (117 км)
Погода на Сосновец Острове (Мурманская область, Россия) (121 км)
Погода в Жижгине (Архангельская область, Россия) (139 км)
Погода в Холмогорах (Архангельская область, Россия) (166 км)

Пояснения к столбцам:

Ветер - указаны скорость ветра в м/с - средняя за 10 мин, порывы в срок и между сроками (в фигурных скобках) и направление, откуда дует ветер: С - северный, СВ - северо-восточный, В - восточный, ЮВ - юго-восточный, Ю - южный, ЮЗ - юго-западный, З - западный, СЗ - северо-западный.
Видимость - горизонтальная дальность видимости в метрах или километрах. При видимости от 1 до 10 км при отсутствии осадков обычно наблюдается дымка, при ухудшении видимости до 1 км и менее - туман. В сухую погоду видимость может ухудшаться дымом, пылью или мглою.
Явления - указаны атмосферные явления, наблюдавшиеся в срок или в последний час перед сроком; фигурными скобками обозначены явления, наблюдавшиеся между сроками (за 1-3 часа до срока); квадратными скобками обозначены град или гололедные отложения с указанием их диаметра в мм.
Облачность - указаны через наклонную черту общая и нижняя облачность в баллах и высота нижней границы облаков в метрах; квадратными скобками обозначены формы облаков: Ci - перистые, Cs - перисто-слоистые, Cc - перисто-кучевые, Ac - высококучевые, As - высокослоистые, Sc - слоисто-кучевые, Ns - слоисто-дождевые, Cu - кучевые, Cb - кучево-дождевые. Подробнее классификацию облаков см. в Атласе облаков (PDF).
T - Температура воздуха - температура, измеренная на высоте 2 м над землей.
Td - Температура точки росы - температура, при понижении до которой содержащийся в воздухе водяной пар достигнет насыщения.
f - Относительная влажность воздуха - влажноcть воздуха, измеренная на высоте 2 м над землей.
Te - Эффективная температура - температура, которую ощущает одетый по сезону человек в тени. Характеристика душности погоды. При расчете учитывается влияние влажности воздуха и скорости ветра на теплоощущения человека.
Tes - Эффективная температура на солнце - температура, которую ощущает человек, с поправкой на солнечный нагрев. Характеристика знойности погоды. Зависит от высоты солнца над горизонтом, облачности и скорости ветра. Ночью, в пасмурную погоду, а также при ветре 12 м/с и более поправка равна нулю.
P - Атмосферное давление - приведенное к уровню моря атмосферное давление.
Po - Атмосферное давление - измеренное на уровне метеостанции атмосферное давление.
Tmin - Минимальная температура - минимум температуры воздуха на высоте 2 м над землей.
Tmax - Максимальная температура - максимум температуры воздуха на высоте 2 м над землей.
R - Количество осадков - Количество выпавших осадков за период времени, мм. При наведении курсора мыши на число - период времени, за который выпало указанное количество осадков.
R24 - Количество осадков - Количество выпавших осадков за 24 часа, мм.
S - Снежный покров - Высота снежного покрова, см. При наведении курсора мыши на число - состояние снежного покрова и степень покрытия местности в баллах.